LHX4PW EDDM-EDDH

Flight info

Callsign LHX4PW
Flight time 0h 54m
Altitude 36000
Route INPUD3Q/08L INPUD Y102 UPALA M726 NARUS DCT ABGUS DCT DIRBO T902 RARUP RARUP3P
Aircraft A319/M-SDE3FGHIRWY/LB1

Departure

Time 2026-05-04 18:20
Airport Munich Airport (EDDM)

Arrival

Time 2026-05-04 19:15
Airport Hamburg Helmut Schmidt Airport (EDDH)
Time Latitude Longitude Altitude Speed Heading
2026-05-04 17:34 48.35466 11.80262 1486 ft 0 kts 83°
2026-05-04 18:03 48.35465 11.80240 1475 ft 3 kts 83°
2026-05-04 18:03 48.35462 11.80210 1476 ft 3 kts 83°
2026-05-04 18:04 48.35460 11.80181 1476 ft 3 kts 72°
2026-05-04 18:04 48.35451 11.80163 1471 ft 3 kts
2026-05-04 18:04 48.35426 11.80166 1473 ft 1 kts 353°
2026-05-04 18:09 48.35503 11.80153 1475 ft 14 kts 353°
2026-05-04 18:10 48.35602 11.80135 1475 ft 15 kts 353°
2026-05-04 18:10 48.35698 11.80083 1478 ft 15 kts 342°
2026-05-04 18:10 48.35799 11.80063 1482 ft 10 kts 353°
2026-05-04 18:10 48.35850 11.80001 1478 ft 12 kts 280°
2026-05-04 18:11 48.35841 11.79858 1485 ft 15 kts 263°
2026-05-04 18:11 48.35829 11.79702 1485 ft 15 kts 263°
2026-05-04 18:11 48.35826 11.79655 1485 ft 0 kts 263°
2026-05-04 18:11 48.35825 11.79649 1485 ft 3 kts 263°
2026-05-04 18:12 48.35820 11.79571 1485 ft 11 kts 268°
2026-05-04 18:12 48.35876 11.79516 1485 ft 11 kts 353°
2026-05-04 18:12 48.35957 11.79502 1479 ft 12 kts 353°
2026-05-04 18:12 48.36024 11.79490 1480 ft 8 kts 353°
2026-05-04 18:13 48.36043 11.79487 1485 ft 0 kts 353°
2026-05-04 18:14 48.36079 11.79481 1480 ft 11 kts 353°
2026-05-04 18:15 48.36217 11.79523 1481 ft 13 kts 75°
2026-05-04 18:15 48.36251 11.79951 1480 ft 23 kts 83°
2026-05-04 18:15 48.36271 11.80203 1485 ft 25 kts 83°
2026-05-04 18:16 48.36291 11.80461 1480 ft 25 kts 83°
2026-05-04 18:16 48.36311 11.80726 1479 ft 26 kts 83°
2026-05-04 18:16 48.36331 11.80994 1485 ft 26 kts 83°
2026-05-04 18:17 48.36373 11.81537 1485 ft 26 kts 83°
2026-05-04 18:17 48.36394 11.81802 1485 ft 20 kts 83°
2026-05-04 18:17 48.36438 11.81998 1478 ft 10 kts
2026-05-04 18:18 48.36520 11.81990 1480 ft 14 kts 353°
2026-05-04 18:18 48.36611 11.81974 1485 ft 15 kts 353°
2026-05-04 18:18 48.36671 11.81905 1484 ft 11 kts 275°
2026-05-04 18:18 48.36670 11.81889 1480 ft 0 kts 264°
2026-05-04 18:19 48.36662 11.81782 1481 ft 40 kts 264°
2026-05-04 18:20 48.36601 11.80971 1486 ft 113 kts 263°
2026-05-04 18:20 48.36489 11.79501 1631 ft 154 kts 264°
2026-05-04 18:20 48.36380 11.77906 2326 ft 153 kts 265°
2026-05-04 18:20 48.36268 11.76310 2971 ft 154 kts 264°
2026-05-04 18:21 48.36312 11.74651 3372 ft 173 kts 292°
2026-05-04 18:21 48.37137 11.73225 3673 ft 195 kts 332°
2026-05-04 18:21 48.38525 11.72638 4005 ft 221 kts 352°
2026-05-04 18:21 48.40138 11.72322 4510 ft 245 kts 354°
2026-05-04 18:22 48.41926 11.72019 5082 ft 268 kts 354°
2026-05-04 18:22 48.43800 11.71718 5957 ft 277 kts 354°
2026-05-04 18:22 48.45757 11.71424 6634 ft 285 kts 354°
2026-05-04 18:22 48.47723 11.71149 6860 ft 286 kts 354°
2026-05-04 18:23 48.49711 11.70880 6930 ft 286 kts 354°
2026-05-04 18:23 48.51703 11.70616 6943 ft 287 kts 354°
2026-05-04 18:23 48.53671 11.70355 6960 ft 288 kts 354°
2026-05-04 18:23 48.55653 11.69773 7733 ft 290 kts 337°
2026-05-04 18:24 48.57506 11.68513 8757 ft 293 kts 332°
2026-05-04 18:24 48.59366 11.67196 9743 ft 297 kts 331°
2026-05-04 18:24 48.61261 11.65845 10345 ft 315 kts 331°
2026-05-04 18:24 48.63316 11.64367 10705 ft 339 kts 331°
2026-05-04 18:25 48.65495 11.62798 11334 ft 351 kts 332°
2026-05-04 18:25 48.67724 11.61200 12139 ft 357 kts 332°
2026-05-04 18:25 48.69989 11.59576 12957 ft 362 kts 332°
2026-05-04 18:25 48.72284 11.57928 13763 ft 367 kts 332°
2026-05-04 18:26 48.74577 11.56277 14476 ft 371 kts 332°
2026-05-04 18:26 48.76925 11.54584 15241 ft 374 kts 332°
2026-05-04 18:26 48.79288 11.52879 15996 ft 377 kts 332°
2026-05-04 18:26 48.81670 11.51159 16762 ft 379 kts 332°
2026-05-04 18:27 48.84035 11.49445 17516 ft 382 kts 332°
2026-05-04 18:27 48.86453 11.47688 18268 ft 385 kts 332°
2026-05-04 18:27 48.88857 11.45944 18913 ft 388 kts 332°
2026-05-04 18:27 48.91313 11.44168 19559 ft 391 kts 332°
2026-05-04 18:28 48.93791 11.42378 20196 ft 394 kts 332°
2026-05-04 18:28 48.95438 11.41186 20621 ft 397 kts 332°
2026-05-04 18:28 48.98773 11.38764 21469 ft 401 kts 332°
2026-05-04 18:28 49.00466 11.37568 21880 ft 405 kts 335°
2026-05-04 18:29 49.04170 11.36373 22649 ft 415 kts 353°
2026-05-04 18:29 49.06093 11.36113 23047 ft 418 kts 353°
2026-05-04 18:29 49.09024 11.35753 23596 ft 422 kts 353°
2026-05-04 18:29 49.11979 11.35432 24067 ft 425 kts 354°
2026-05-04 18:30 49.17887 11.34857 25032 ft 430 kts 354°
2026-05-04 18:30 49.20891 11.34562 25499 ft 432 kts 354°
2026-05-04 18:30 49.23901 11.34260 25960 ft 435 kts 353°
2026-05-04 18:31 49.26898 11.33952 26420 ft 437 kts 353°
2026-05-04 18:31 49.29954 11.33633 26877 ft 440 kts 353°
2026-05-04 18:31 49.33026 11.33309 27334 ft 442 kts 353°
2026-05-04 18:31 49.36109 11.32982 27785 ft 445 kts 353°
2026-05-04 18:32 49.39179 11.32657 28227 ft 448 kts 353°
2026-05-04 18:32 49.42298 11.32331 28659 ft 450 kts 353°
2026-05-04 18:32 49.45445 11.32001 29085 ft 453 kts 353°
2026-05-04 18:32 49.48564 11.31675 29490 ft 455 kts 353°
2026-05-04 18:33 49.51750 11.31344 29889 ft 457 kts 353°
2026-05-04 18:33 49.54922 11.31012 30243 ft 460 kts 353°
2026-05-04 18:33 49.58133 11.30673 30563 ft 462 kts 353°
2026-05-04 18:33 49.61360 11.30329 30883 ft 465 kts 353°
2026-05-04 18:34 49.64577 11.29989 31191 ft 468 kts 353°
2026-05-04 18:34 49.67842 11.29645 31572 ft 468 kts 353°
2026-05-04 18:34 49.71099 11.29299 32027 ft 467 kts 353°
2026-05-04 18:34 49.74306 11.28960 32477 ft 467 kts 353°
2026-05-04 18:35 49.77548 11.28618 32909 ft 466 kts 353°
2026-05-04 18:35 49.80790 11.28272 33369 ft 466 kts 353°
2026-05-04 18:35 49.83992 11.27927 33825 ft 465 kts 353°
2026-05-04 18:35 49.87220 11.27580 34249 ft 464 kts 353°
2026-05-04 18:36 49.90452 11.27233 34657 ft 463 kts 353°
2026-05-04 18:36 49.93677 11.26887 35065 ft 462 kts 353°
2026-05-04 18:36 49.96855 11.26546 35427 ft 462 kts 353°
2026-05-04 18:36 50.00069 11.26201 35684 ft 461 kts 353°
2026-05-04 18:37 50.03275 11.25857 35907 ft 461 kts 353°
2026-05-04 18:37 50.09668 11.25174 35965 ft 458 kts 353°
2026-05-04 18:38 50.15989 11.24491 35969 ft 457 kts 352°
2026-05-04 18:38 50.22315 11.23806 35968 ft 456 kts 352°
2026-05-04 18:39 50.28648 11.23129 35971 ft 456 kts 352°
2026-05-04 18:39 50.34995 11.22438 35973 ft 456 kts 352°
2026-05-04 18:40 50.41326 11.21742 35980 ft 456 kts 352°
2026-05-04 18:40 50.47644 11.21047 35980 ft 456 kts 352°
2026-05-04 18:41 50.53997 11.20346 35980 ft 456 kts 352°
2026-05-04 18:41 50.60292 11.19652 35981 ft 456 kts 352°
2026-05-04 18:42 50.66640 11.18955 35984 ft 456 kts 352°
2026-05-04 18:42 50.72985 11.18259 35990 ft 456 kts 352°
2026-05-04 18:43 50.79312 11.17560 35994 ft 456 kts 352°
2026-05-04 18:43 50.85629 11.16857 35994 ft 456 kts 352°
2026-05-04 18:44 50.91934 11.16156 36001 ft 456 kts 352°
2026-05-04 18:44 50.98250 11.15451 36001 ft 456 kts 352°
2026-05-04 18:45 51.04587 11.14731 35998 ft 456 kts 352°
2026-05-04 18:45 51.10955 11.14006 35998 ft 457 kts 352°
2026-05-04 18:46 51.17280 11.13292 35992 ft 457 kts 352°
2026-05-04 18:46 51.23614 11.12584 35983 ft 457 kts 352°
2026-05-04 18:47 51.29960 11.11867 35980 ft 456 kts 352°
2026-05-04 18:47 51.36280 11.11141 35976 ft 457 kts 352°
2026-05-04 18:48 51.42594 11.10427 35971 ft 456 kts 352°
2026-05-04 18:48 51.48947 11.09709 35976 ft 456 kts 352°
2026-05-04 18:49 51.55303 11.08976 35972 ft 456 kts 351°
2026-05-04 18:49 51.61603 11.08240 35969 ft 456 kts 351°
2026-05-04 18:50 51.67966 11.07505 35964 ft 456 kts 351°
2026-05-04 18:50 51.74277 11.06779 35959 ft 456 kts 351°
2026-05-04 18:51 51.80618 11.06047 35553 ft 455 kts 351°
2026-05-04 18:51 51.83760 11.05683 34806 ft 456 kts 351°
2026-05-04 18:51 51.86936 11.05306 34055 ft 457 kts 350°
2026-05-04 18:51 51.90117 11.04807 33182 ft 457 kts 348°
2026-05-04 18:52 51.93243 11.04178 32290 ft 458 kts 347°
2026-05-04 18:52 51.96413 11.03453 31378 ft 460 kts 347°
2026-05-04 18:52 51.99593 11.02692 30531 ft 461 kts 347°
2026-05-04 18:52 52.02760 11.01946 30147 ft 458 kts 347°
2026-05-04 18:53 52.05890 11.01238 29941 ft 458 kts 347°
2026-05-04 18:53 52.12236 10.99872 29958 ft 459 kts 348°
2026-05-04 18:54 52.18567 10.98531 29965 ft 460 kts 348°
2026-05-04 18:54 52.24909 10.97179 29966 ft 459 kts 348°
2026-05-04 18:55 52.31224 10.95818 29964 ft 459 kts 347°
2026-05-04 18:55 52.40757 10.93758 29962 ft 459 kts 347°
2026-05-04 18:56 52.47066 10.92373 29966 ft 459 kts 347°
2026-05-04 18:56 52.53376 10.90990 29961 ft 459 kts 347°
2026-05-04 18:57 52.59722 10.89603 29950 ft 459 kts 347°
2026-05-04 18:57 52.62894 10.88909 29755 ft 456 kts 347°
2026-05-04 18:57 52.65980 10.88238 29034 ft 451 kts 347°
2026-05-04 18:58 52.69091 10.87561 28333 ft 447 kts 347°
2026-05-04 18:58 52.72171 10.86888 27645 ft 442 kts 347°
2026-05-04 18:58 52.75217 10.86214 27011 ft 438 kts 347°
2026-05-04 18:58 52.78194 10.85547 26382 ft 434 kts 347°
2026-05-04 18:59 52.81187 10.84877 25756 ft 430 kts 347°
2026-05-04 18:59 52.84143 10.84220 25143 ft 426 kts 347°
2026-05-04 18:59 52.87045 10.83603 24556 ft 423 kts 348°
2026-05-04 18:59 52.89971 10.83008 23984 ft 419 kts 348°
2026-05-04 19:00 52.92864 10.82434 23419 ft 416 kts 348°
2026-05-04 19:00 52.95743 10.81866 22811 ft 413 kts 348°
2026-05-04 19:00 52.98560 10.81305 22260 ft 410 kts 348°
2026-05-04 19:00 53.01385 10.80735 21751 ft 406 kts 348°
2026-05-04 19:01 53.04190 10.80162 21242 ft 403 kts 348°
2026-05-04 19:01 53.06971 10.79589 20716 ft 398 kts 349°
2026-05-04 19:01 53.09684 10.79029 20061 ft 394 kts 349°
2026-05-04 19:01 53.12400 10.78471 19417 ft 389 kts 349°
2026-05-04 19:02 53.15045 10.77931 18803 ft 384 kts 349°
2026-05-04 19:02 53.17639 10.76998 18187 ft 374 kts 338°
2026-05-04 19:02 53.20060 10.75537 17480 ft 369 kts 336°
2026-05-04 19:02 53.22478 10.74060 16788 ft 365 kts 336°
2026-05-04 19:03 53.24825 10.72614 16119 ft 361 kts 336°
2026-05-04 19:03 53.27176 10.71161 15452 ft 357 kts 336°
2026-05-04 19:03 53.29498 10.69725 14796 ft 353 kts 336°
2026-05-04 19:03 53.31778 10.68316 14163 ft 350 kts 336°
2026-05-04 19:04 53.34059 10.66906 13485 ft 347 kts 336°
2026-05-04 19:04 53.36292 10.65519 12782 ft 343 kts 336°
2026-05-04 19:04 53.38522 10.64131 12060 ft 340 kts 336°
2026-05-04 19:04 53.40717 10.62762 11346 ft 338 kts 336°
2026-05-04 19:05 53.42916 10.61393 10665 ft 334 kts 336°
2026-05-04 19:05 53.45098 10.60036 10033 ft 333 kts 336°
2026-05-04 19:05 53.47268 10.58683 9495 ft 329 kts 336°
2026-05-04 19:05 53.49381 10.57361 8926 ft 327 kts 336°
2026-05-04 19:06 53.51513 10.56027 8381 ft 324 kts 336°
2026-05-04 19:06 53.53623 10.54707 7828 ft 321 kts 336°
2026-05-04 19:06 53.55682 10.53416 7302 ft 318 kts 336°
2026-05-04 19:06 53.57751 10.52119 6771 ft 316 kts 336°
2026-05-04 19:07 53.59766 10.50685 6227 ft 311 kts 328°
2026-05-04 19:07 53.61599 10.48777 5654 ft 308 kts 324°
2026-05-04 19:07 53.63381 10.46839 5337 ft 296 kts 324°
2026-05-04 19:07 53.65026 10.45046 5173 ft 272 kts 324°
2026-05-04 19:08 53.66593 10.43345 4686 ft 262 kts 324°
2026-05-04 19:08 53.68114 10.41682 4079 ft 259 kts 324°
2026-05-04 19:08 53.69588 10.40054 3705 ft 251 kts 324°
2026-05-04 19:08 53.71003 10.38488 3576 ft 235 kts 324°
2026-05-04 19:09 53.72349 10.37003 3406 ft 226 kts 324°
2026-05-04 19:09 53.73644 10.35573 3116 ft 224 kts 324°
2026-05-04 19:09 53.74799 10.33844 2975 ft 221 kts 301°
2026-05-04 19:09 53.75216 10.31384 2999 ft 220 kts 271°
2026-05-04 19:10 53.75130 10.28807 2994 ft 221 kts 265°
2026-05-04 19:10 53.74984 10.26221 2998 ft 220 kts 264°
2026-05-04 19:10 53.74796 10.23669 2997 ft 219 kts 257°
2026-05-04 19:10 53.74145 10.21434 2994 ft 209 kts 233°
2026-05-04 19:11 53.73238 10.19589 2959 ft 203 kts 232°
2026-05-04 19:11 53.72346 10.17767 2763 ft 199 kts 232°
2026-05-04 19:11 53.71482 10.16004 2550 ft 187 kts 232°
2026-05-04 19:11 53.70675 10.14357 2276 ft 177 kts 232°
2026-05-04 19:12 53.69906 10.12789 2047 ft 174 kts 232°
2026-05-04 19:12 53.68422 10.09769 1582 ft 150 kts 232°
2026-05-04 19:12 53.67796 10.08495 1390 ft 136 kts 233°
2026-05-04 19:13 53.67202 10.07286 1210 ft 130 kts 232°
2026-05-04 19:13 53.66624 10.06109 1035 ft 129 kts 233°
2026-05-04 19:13 53.66059 10.04961 859 ft 128 kts 233°
2026-05-04 19:13 53.65491 10.03807 681 ft 127 kts 233°
2026-05-04 19:14 53.64925 10.02657 511 ft 127 kts 233°
2026-05-04 19:14 53.64369 10.01529 337 ft 126 kts 233°
2026-05-04 19:14 53.63801 10.00381 163 ft 127 kts 231°
2026-05-04 19:14 53.63258 9.99265 47 ft 112 kts 230°
2026-05-04 19:15 53.62922 9.98585 45 ft 45 kts 230°
2026-05-04 19:15 53.62794 9.98360 43 ft 17 kts 200°
2026-05-04 19:15 53.62703 9.98413 46 ft 11 kts 140°
2026-05-04 19:15 53.62690 9.98432 46 ft 0 kts 140°
2026-05-04 19:16 53.62674 9.98484 47 ft 10 kts 95°
2026-05-04 19:16 53.62733 9.98637 47 ft 21 kts 50°
2026-05-04 19:17 53.62824 9.98823 47 ft 21 kts 50°
2026-05-04 19:17 53.62917 9.99011 47 ft 21 kts 50°
2026-05-04 19:17 53.62999 9.99176 47 ft 16 kts 50°
2026-05-04 19:17 53.63065 9.99317 47 ft 14 kts 55°
2026-05-04 19:18 53.63085 9.99365 47 ft 0 kts 56°
2026-05-04 19:18 53.63086 9.99369 47 ft 1 kts 56°
2026-05-04 19:18 53.63101 9.99405 47 ft 9 kts 56°
2026-05-04 19:18 53.63152 9.99526 45 ft 14 kts 52°
2026-05-04 19:19 53.63216 9.99657 48 ft 14 kts 50°
2026-05-04 19:19 53.63286 9.99778 49 ft 15 kts 47°
2026-05-04 19:19 53.63357 9.99918 49 ft 16 kts 50°
2026-05-04 19:19 53.63421 10.00047 49 ft 11 kts 50°
2026-05-04 19:20 53.63405 10.00153 49 ft 11 kts 157°
2026-05-04 19:20 53.63323 10.00168 49 ft 13 kts 175°
2026-05-04 19:20 53.63253 10.00206 49 ft 9 kts 128°
2026-05-04 19:20 53.63244 10.00294 49 ft 7 kts 96°
2026-05-04 19:21 53.63245 10.00356 49 ft 4 kts 87°
2026-05-04 19:21 53.63245 10.00363 49 ft 0 kts 87°